QPF
0.01 0.01 0.00 0.01 0.01 0.01 0.01 0.02 0.03 0.04 0.04 0.06 0.04 0.03 0.03 0.03 0.03 0.03 0.03 0.02 0.01 0.03 0.05 0.08 0.08 0.08 0.08 0.07 0.06 0.06 0.07 0.07 0.06 0.04 0.05 0.05 0.05 0.06 0.07 0.07 0.06 0.06 0.06
0.03 0.03 0.02 0.03 0.02 0.03 0.04 0.06 0.08 0.09 0.07 0.07 0.06 0.07 0.08 0.08 0.06 0.06 0.05 0.04 0.02 0.02 0.03 0.06 0.08 0.08 0.09 0.08 0.07 0.07 0.07 0.08 0.07 0.05 0.05 0.05 0.05 0.05 0.06 0.06 0.06 0.05 0.04
0.08 0.08 0.07 0.07 0.08 0.10 0.12 0.13 0.14 0.14 0.11 0.12 0.12 0.14 0.13 0.11 0.09 0.07 0.08 0.06 0.05 0.02 0.02 0.03 0.06 0.08 0.10 0.11 0.11 0.11 0.07 0.07 0.06 0.05 0.05 0.04 0.04 0.04 0.05 0.05 0.05 0.04 0.03
0.13 0.16 0.15 0.16 0.21 0.23 0.24 0.25 0.25 0.23 0.18 0.16 0.14 0.16 0.15 0.13 0.11 0.09 0.07 0.06 0.05 0.04 0.02 0.02 0.03 0.04 0.09 0.14 0.16 0.13 0.09 0.07 0.06 0.06 0.05 0.04 0.04 0.03 0.03 0.03 0.04 0.03 0.02
0.18 0.22 0.21 0.22 0.30 0.36 0.37 0.36 0.33 0.29 0.24 0.21 0.19 0.17 0.15 0.13 0.10 0.07 0.05 0.05 0.04 0.03 0.02 0.01 0.01 0.02 0.06 0.12 0.14 0.13 0.11 0.08 0.06 0.06 0.07 0.06 0.05 0.03 0.02 0.02 0.03 0.02 0.02
0.22 0.29 0.27 0.28 0.37 0.40 0.38 0.39 0.38 0.35 0.28 0.26 0.24 0.14 0.11 0.10 0.07 0.04 0.03 0.03 0.02 0.03 0.02 0.03 0.02 0.02 0.02 0.06 0.08 0.10 0.12 0.10 0.08 0.08 0.10 0.10 0.08 0.05 0.02 0.02 0.02 0.02 0.01
0.19 0.24 0.24 0.27 0.35 0.38 0.39 0.43 0.44 0.40 0.31 0.31 0.24 0.12 0.07 0.05 0.03 0.02 0.02 0.02 0.02 0.03 0.04 0.03 0.03 0.02 0.02 0.03 0.03 0.06 0.10 0.11 0.09 0.09 0.11 0.11 0.10 0.07 0.03 0.02 0.01 0.01 0.01
0.16 0.17 0.19 0.23 0.29 0.35 0.37 0.39 0.40 0.36 0.30 0.30 0.25 0.18 0.08 0.04 0.03 0.02 0.02 0.02 0.02 0.03 0.03 0.04 0.04 0.04 0.03 0.03 0.04 0.03 0.05 0.08 0.08 0.09 0.11 0.10 0.09 0.07 0.05 0.03 0.01 0.00 0.00
0.15 0.17 0.19 0.23 0.28 0.33 0.29 0.31 0.37 0.37 0.32 0.29 0.27 0.24 0.15 0.08 0.05 0.03 0.03 0.03 0.03 0.03 0.04 0.04 0.03 0.03 0.04 0.04 0.05 0.05 0.05 0.06 0.06 0.08 0.09 0.09 0.08 0.07 0.07 0.06 0.04 0.02 0.01
0.09 0.11 0.13 0.15 0.21 0.25 0.23 0.24 0.26 0.26 0.27 0.26 0.25 0.23 0.19 0.13 0.09 0.05 0.04 0.04 0.04 0.04 0.04 0.03 0.03 0.04 0.04 0.04 0.05 0.05 0.04 0.04 0.03 0.04 0.05 0.07 0.08 0.07 0.08 0.09 0.11 0.08 0.04
0.05 0.07 0.09 0.09 0.12 0.14 0.15 0.18 0.19 0.20 0.19 0.19 0.18 0.17 0.16 0.13 0.09 0.06 0.04 0.04 0.04 0.04 0.03 0.02 0.04 0.05 0.04 0.04 0.03 0.03 0.03 0.03 0.03 0.03 0.03 0.03 0.06 0.09 0.12 0.14 0.17 0.16 0.13
0.02 0.03 0.05 0.07 0.09 0.11 0.12 0.12 0.13 0.14 0.13 0.13 0.12 0.11 0.11 0.09 0.08 0.07 0.06 0.05 0.05 0.04 0.03 0.03 0.03 0.03 0.02 0.02 0.02 0.03 0.03 0.02 0.02 0.02 0.03 0.03 0.04 0.07 0.11 0.14 0.16 0.16 0.15
0.01 0.02 0.03 0.04 0.05 0.06 0.07 0.07 0.08 0.08 0.07 0.08 0.10 0.12 0.14 0.12 0.10 0.08 0.06 0.07 0.06 0.04 0.04 0.04 0.03 0.02 0.02 0.02 0.02 0.02 0.01 0.01 0.01 0.01 0.01 0.02 0.03 0.05 0.07 0.09 0.13 0.14 0.15
0.01 0.02 0.03 0.03 0.04 0.05 0.06 0.06 0.05 0.05 0.05 0.07 0.09 0.10 0.11 0.12 0.12 0.11 0.09 0.07 0.05 0.03 0.03 0.04 0.03 0.02 0.02 0.02 0.01 0.01 0.00 0.00 0.00 0.00 0.00 0.01 0.01 0.02 0.03 0.04 0.07 0.09 0.10
0.01 0.02 0.02 0.02 0.02 0.03 0.04 0.05 0.05 0.05 0.06 0.08 0.10 0.10 0.11 0.09 0.10 0.10 0.09 0.07 0.05 0.03 0.04 0.04 0.03 0.02 0.02 0.02 0.01 0.00 0.00 0.00 0.00 0.00 0.00 0.00 0.00 0.01 0.01 0.01 0.02 0.04 0.05
0.00 0.01 0.02 0.02 0.02 0.02 0.03 0.05 0.06 0.07 0.09 0.10 0.10 0.11 0.11 0.12 0.11 0.11 0.09 0.08 0.06 0.04 0.04 0.03 0.02 0.02 0.01 0.01 0.01 0.01 0.00 0.00 0.00 0.00 0.00 0.00 0.00 0.00 0.00 0.00 0.01 0.01 0.01
0.00 0.01 0.01 0.01 0.02 0.03 0.04 0.05 0.06 0.08 0.11 0.12 0.14 0.15 0.15 0.13 0.12 0.12 0.11 0.09 0.08 0.06 0.04 0.03 0.02 0.01 0.01 0.00 0.00 0.00 0.00 0.00 0.00 0.00 0.00 0.00 0.00 0.00 0.00 0.00 0.00 0.00 0.01
0.01 0.01 0.02 0.02 0.03 0.04 0.04 0.05 0.07 0.10 0.13 0.14 0.15 0.15 0.14 0.13 0.13 0.12 0.10 0.09 0.07 0.05 0.04 0.03 0.01 0.01 0.00 0.00 0.00 0.00 0.00 0.00 0.00 0.00 0.00 0.00 0.00 0.00 0.00 0.00 0.00 0.00 0.00
0.01 0.01 0.02 0.03 0.04 0.04 0.06 0.07 0.08 0.12 0.16 0.17 0.16 0.14 0.15 0.14 0.12 0.11 0.09 0.08 0.05 0.03 0.02 0.01 0.01 0.00 0.00 0.00 0.00 0.00 0.00 0.00 0.00 0.00 0.00 0.00 0.00 0.00 0.00 0.00 0.00 0.00 0.00
0.01 0.01 0.01 0.03 0.03 0.04 0.06 0.08 0.12 0.15 0.16 0.17 0.18 0.16 0.14 0.14 0.12 0.09 0.07 0.05 0.04 0.02 0.01 0.00 0.00 0.00 0.00 0.00 0.00 0.00 0.00 0.00 0.00 0.00 0.00 0.00 0.00 0.00 0.00 0.00 0.00 0.00 0.00
0.01 0.01 0.01 0.02 0.04 0.07 0.08 0.07 0.09 0.13 0.15 0.15 0.14 0.11 0.09 0.09 0.08 0.07 0.06 0.04 0.02 0.01 0.00 0.00 0.00 0.00 0.00 0.00 0.00 0.00 0.00 0.00 0.00 0.00 0.00 0.00 0.00 0.00 0.00 0.00 0.00 0.00 0.00
0.01 0.01 0.01 0.01 0.03 0.05 0.07 0.08 0.09 0.09 0.09 0.09 0.09 0.06 0.05 0.06 0.06 0.05 0.04 0.03 0.02 0.01 0.00 0.00 0.00 0.00 0.00 0.00 0.00 0.00 0.00 0.00 0.00 0.00 0.00 0.00 0.00 0.00 0.00 0.00 0.00 0.00 0.00
0.01 0.01 0.02 0.02 0.03 0.04 0.05 0.06 0.06 0.08 0.07 0.05 0.04 0.03 0.03 0.02 0.02 0.02 0.01 0.01 0.01 0.00 0.00 0.00 0.00 0.00 0.00 0.00 0.00 0.00 0.00 0.00 0.00 0.00 0.00 0.00 0.00 0.00 0.00 0.00 0.00 0.00 0.00
0.02 0.02 0.03 0.03 0.04 0.04 0.04 0.05 0.06 0.06 0.07 0.04 0.02 0.01 0.02 0.02 0.01 0.01 0.01 0.00 0.00 0.00 0.00 0.00 0.00 0.00 0.00 0.00 0.00 0.00 0.00 0.00 0.00 0.00 0.00 0.00 0.00 0.00 0.00 0.00 0.00 0.00 0.00
0.03 0.02 0.02 0.03 0.04 0.04 0.04 0.03 0.04 0.05 0.04 0.03 0.01 0.00 0.00 0.01 0.01 0.01 0.01 0.00 0.00 0.00 0.00 0.00 0.00 0.00 0.00 0.00 0.00 0.00 0.00 0.00 0.00 0.00 0.00 0.00 0.00 0.00 0.00 0.00 0.00 0.00 0.00
0.05 0.03 0.02 0.02 0.03 0.02 0.02 0.02 0.02 0.03 0.02 0.01 0.00 0.00 0.00 0.00 0.00 0.00 0.00 0.00 0.00 0.00 0.00 0.00 0.00 0.00 0.00 0.00 0.00 0.00 0.00 0.00 0.00 0.00 0.00 0.00 0.00 0.00 0.00 0.00 0.00 0.00 0.01
MSLP
1013.57 1013.56 1013.51 1013.44 1013.37 1013.33 1013.33 1013.37 1013.44 1013.52 1013.58 1013.62 1013.62 1013.59 1013.53 1013.45 1013.36 1013.27 1013.18 1013.08 1012.96 1012.83 1012.70 1012.57 1012.45 1012.39 1012.38 1012.45 1012.58 1012.77 1013.01 1013.28 1013.57 1013.87 1014.18 1014.49 1014.82 1015.17 1015.52 1015.88 1016.24 1016.57 1016.89
1013.11 1013.07 1013.00 1012.93 1012.87 1012.85 1012.88 1012.95 1013.04 1013.16 1013.26 1013.33 1013.36 1013.35 1013.30 1013.21 1013.10 1012.97 1012.82 1012.66 1012.49 1012.31 1012.15 1012.00 1011.88 1011.82 1011.81 1011.87 1011.99 1012.16 1012.39 1012.64 1012.91 1013.20 1013.50 1013.83 1014.17 1014.53 1014.90 1015.28 1015.65 1016.00 1016.33
1012.56 1012.49 1012.42 1012.36 1012.33 1012.34 1012.40 1012.50 1012.64 1012.80 1012.94 1013.05 1013.12 1013.14 1013.10 1013.01 1012.86 1012.68 1012.47 1012.24 1012.01 1011.78 1011.57 1011.39 1011.26 1011.18 1011.17 1011.22 1011.33 1011.49 1011.69 1011.92 1012.17 1012.45 1012.76 1013.08 1013.43 1013.81 1014.20 1014.59 1014.99 1015.36 1015.72
1011.95 1011.85 1011.78 1011.74 1011.74 1011.79 1011.89 1012.04 1012.22 1012.42 1012.61 1012.77 1012.88 1012.92 1012.90 1012.80 1012.64 1012.41 1012.14 1011.84 1011.54 1011.25 1010.98 1010.76 1010.60 1010.51 1010.48 1010.52 1010.61 1010.76 1010.93 1011.15 1011.38 1011.65 1011.94 1012.27 1012.62 1013.01 1013.41 1013.84 1014.26 1014.67 1015.07
1011.30 1011.18 1011.11 1011.09 1011.12 1011.21 1011.35 1011.54 1011.77 1012.00 1012.23 1012.43 1012.58 1012.66 1012.66 1012.57 1012.39 1012.14 1011.82 1011.47 1011.11 1010.75 1010.43 1010.17 1009.97 1009.85 1009.80 1009.82 1009.90 1010.02 1010.17 1010.36 1010.58 1010.82 1011.10 1011.41 1011.76 1012.15 1012.57 1013.02 1013.47 1013.92 1014.37
1010.65 1010.51 1010.44 1010.43 1010.48 1010.60 1010.78 1010.99 1011.25 1011.52 1011.78 1012.02 1012.21 1012.32 1012.35 1012.29 1012.12 1011.86 1011.53 1011.15 1010.74 1010.35 1009.98 1009.68 1009.45 1009.29 1009.22 1009.21 1009.26 1009.35 1009.47 1009.63 1009.82 1010.03 1010.28 1010.58 1010.91 1011.30 1011.72 1012.17 1012.65 1013.14 1013.63
1010.05 1009.89 1009.80 1009.79 1009.85 1009.98 1010.17 1010.40 1010.67 1010.95 1011.24 1011.51 1011.74 1011.90 1011.98 1011.96 1011.83 1011.60 1011.28 1010.90 1010.48 1010.07 1009.68 1009.35 1009.09 1008.91 1008.79 1008.76 1008.77 1008.82 1008.91 1009.03 1009.17 1009.35 1009.57 1009.83 1010.14 1010.49 1010.91 1011.36 1011.84 1012.35 1012.88
1009.54 1009.34 1009.23 1009.20 1009.24 1009.36 1009.54 1009.76 1010.03 1010.32 1010.62 1010.92 1011.19 1011.41 1011.54 1011.59 1011.52 1011.34 1011.07 1010.73 1010.34 1009.94 1009.55 1009.21 1008.93 1008.73 1008.59 1008.51 1008.48 1008.50 1008.54 1008.61 1008.71 1008.84 1009.01 1009.22 1009.49 1009.81 1010.19 1010.62 1011.10 1011.61 1012.14
1009.16 1008.91 1008.75 1008.67 1008.68 1008.76 1008.90 1009.09 1009.34 1009.62 1009.93 1010.26 1010.57 1010.84 1011.04 1011.16 1011.19 1011.09 1010.90 1010.63 1010.30 1009.95 1009.59 1009.27 1008.99 1008.77 1008.60 1008.49 1008.42 1008.39 1008.39 1008.41 1008.46 1008.53 1008.65 1008.81 1009.03 1009.30 1009.63 1010.02 1010.46 1010.95 1011.46
1008.91 1008.59 1008.36 1008.22 1008.16 1008.18 1008.27 1008.41 1008.62 1008.89 1009.20 1009.53 1009.88 1010.21 1010.49 1010.70 1010.82 1010.83 1010.74 1010.57 1010.33 1010.05 1009.75 1009.47 1009.21 1008.99 1008.81 1008.67 1008.57 1008.49 1008.43 1008.41 1008.41 1008.43 1008.50 1008.61 1008.77 1008.98 1009.26 1009.60 1009.99 1010.42 1010.90
1008.76 1008.38 1008.07 1007.85 1007.71 1007.64 1007.66 1007.74 1007.90 1008.14 1008.43 1008.78 1009.15 1009.53 1009.88 1010.17 1010.39 1010.52 1010.55 1010.49 1010.36 1010.17 1009.96 1009.74 1009.52 1009.32 1009.14 1008.98 1008.84 1008.73 1008.64 1008.57 1008.53 1008.51 1008.54 1008.60 1008.72 1008.89 1009.11 1009.38 1009.71 1010.09 1010.49
1008.68 1008.23 1007.84 1007.52 1007.29 1007.14 1007.07 1007.09 1007.19 1007.39 1007.66 1008.01 1008.40 1008.81 1009.22 1009.59 1009.91 1010.14 1010.29 1010.35 1010.34 1010.27 1010.15 1010.01 1009.85 1009.68 1009.52 1009.35 1009.20 1009.06 1008.94 1008.84 1008.77 1008.73 1008.73 1008.77 1008.85 1008.98 1009.16 1009.38 1009.65 1009.95 1010.29
1008.63 1008.10 1007.64 1007.23 1006.91 1006.67 1006.52 1006.47 1006.52 1006.66 1006.91 1007.25 1007.65 1008.08 1008.53 1008.96 1009.35 1009.68 1009.95 1010.13 1010.24 1010.29 1010.28 1010.23 1010.14 1010.02 1009.89 1009.73 1009.58 1009.43 1009.29 1009.18 1009.10 1009.05 1009.04 1009.08 1009.15 1009.26 1009.40 1009.58 1009.79 1010.03 1010.29
1008.54 1007.97 1007.43 1006.96 1006.55 1006.24 1006.02 1005.91 1005.90 1006.01 1006.22 1006.54 1006.93 1007.37 1007.84 1008.32 1008.77 1009.18 1009.53 1009.83 1010.06 1010.23 1010.33 1010.38 1010.38 1010.32 1010.23 1010.10 1009.96 1009.81 1009.67 1009.55 1009.47 1009.43 1009.43 1009.47 1009.55 1009.66 1009.78 1009.94 1010.11 1010.29 1010.48
1008.41 1007.80 1007.22 1006.70 1006.24 1005.87 1005.60 1005.43 1005.39 1005.46 1005.64 1005.92 1006.30 1006.73 1007.21 1007.70 1008.19 1008.66 1009.10 1009.49 1009.83 1010.11 1010.33 1010.48 1010.56 1010.58 1010.53 1010.45 1010.32 1010.19 1010.06 1009.95 1009.88 1009.85 1009.87 1009.92 1010.01 1010.12 1010.25 1010.39 1010.52 1010.66 1010.79
1008.21 1007.60 1007.01 1006.47 1005.99 1005.59 1005.29 1005.10 1005.02 1005.06 1005.21 1005.47 1005.81 1006.22 1006.68 1007.17 1007.69 1008.20 1008.70 1009.17 1009.61 1009.99 1010.32 1010.57 1010.74 1010.83 1010.84 1010.79 1010.70 1010.58 1010.46 1010.36 1010.30 1010.29 1010.32 1010.39 1010.49 1010.60 1010.73 1010.85 1010.97 1011.07 1011.15
1007.96 1007.39 1006.83 1006.30 1005.84 1005.45 1005.15 1004.95 1004.85 1004.87 1004.99 1005.21 1005.52 1005.90 1006.33 1006.82 1007.33 1007.87 1008.41 1008.95 1009.46 1009.93 1010.35 1010.69 1010.94 1011.10 1011.16 1011.16 1011.09 1010.99 1010.88 1010.78 1010.73 1010.72 1010.75 1010.82 1010.92 1011.03 1011.15 1011.25 1011.34 1011.41 1011.46
1007.70 1007.19 1006.69 1006.23 1005.81 1005.46 1005.19 1005.00 1004.91 1004.91 1005.01 1005.19 1005.45 1005.79 1006.19 1006.65 1007.16 1007.70 1008.27 1008.85 1009.42 1009.97 1010.46 1010.87 1011.19 1011.40 1011.52 1011.54 1011.50 1011.41 1011.30 1011.21 1011.14 1011.12 1011.13 1011.19 1011.27 1011.36 1011.45 1011.52 1011.58 1011.61 1011.63
1007.46 1007.04 1006.64 1006.26 1005.92 1005.64 1005.41 1005.25 1005.17 1005.17 1005.24 1005.40 1005.62 1005.91 1006.28 1006.70 1007.19 1007.73 1008.31 1008.91 1009.52 1010.11 1010.65 1011.11 1011.48 1011.73 1011.89 1011.94 1011.91 1011.82 1011.71 1011.60 1011.52 1011.47 1011.45 1011.47 1011.51 1011.55 1011.60 1011.63 1011.65 1011.65 1011.62
1007.26 1006.95 1006.66 1006.39 1006.15 1005.94 1005.78 1005.67 1005.61 1005.61 1005.67 1005.79 1005.98 1006.24 1006.56 1006.95 1007.40 1007.92 1008.50 1009.10 1009.73 1010.33 1010.90 1011.39 1011.78 1012.07 1012.24 1012.30 1012.28 1012.20 1012.08 1011.95 1011.84 1011.75 1011.69 1011.66 1011.64 1011.63 1011.62 1011.59 1011.56 1011.51 1011.44
1007.10 1006.91 1006.73 1006.57 1006.44 1006.32 1006.24 1006.18 1006.15 1006.16 1006.22 1006.33 1006.48 1006.70 1006.98 1007.34 1007.76 1008.25 1008.80 1009.40 1010.01 1010.61 1011.17 1011.67 1012.07 1012.36 1012.53 1012.60 1012.59 1012.50 1012.37 1012.23 1012.09 1011.97 1011.86 1011.78 1011.70 1011.62 1011.54 1011.45 1011.35 1011.25 1011.13
1006.96 1006.86 1006.80 1006.75 1006.72 1006.70 1006.69 1006.69 1006.70 1006.74 1006.80 1006.90 1007.04 1007.24 1007.49 1007.81 1008.20 1008.66 1009.18 1009.74 1010.33 1010.90 1011.45 1011.92 1012.30 1012.58 1012.76 1012.82 1012.80 1012.72 1012.59 1012.44 1012.28 1012.14 1011.99 1011.86 1011.72 1011.59 1011.44 1011.28 1011.12 1010.96 1010.79
1006.79 1006.78 1006.81 1006.86 1006.92 1006.98 1007.04 1007.11 1007.18 1007.25 1007.34 1007.45 1007.59 1007.78 1008.02 1008.31 1008.68 1009.10 1009.59 1010.11 1010.65 1011.18 1011.68 1012.12 1012.48 1012.74 1012.90 1012.96 1012.95 1012.87 1012.75 1012.60 1012.45 1012.29 1012.13 1011.96 1011.78 1011.59 1011.39 1011.17 1010.95 1010.72 1010.50
1006.54 1006.59 1006.69 1006.82 1006.95 1007.10 1007.24 1007.38 1007.51 1007.64 1007.77 1007.91 1008.08 1008.28 1008.51 1008.80 1009.15 1009.55 1009.99 1010.47 1010.96 1011.45 1011.90 1012.29 1012.61 1012.84 1012.98 1013.04 1013.04 1012.97 1012.88 1012.75 1012.61 1012.47 1012.30 1012.13 1011.93 1011.71 1011.46 1011.19 1010.91 1010.63 1010.35
1006.17 1006.26 1006.40 1006.58 1006.79 1007.01 1007.23 1007.45 1007.66 1007.86 1008.07 1008.27 1008.47 1008.71 1008.97 1009.26 1009.60 1009.98 1010.39 1010.83 1011.27 1011.71 1012.10 1012.45 1012.73 1012.93 1013.06 1013.12 1013.13 1013.09 1013.02 1012.93 1012.82 1012.70 1012.56 1012.39 1012.19 1011.95 1011.67 1011.37 1011.04 1010.72 1010.38
1005.65 1005.74 1005.91 1006.15 1006.42 1006.72 1007.03 1007.35 1007.66 1007.96 1008.25 1008.52 1008.80 1009.08 1009.37 1009.68 1010.02 1010.39 1010.78 1011.19 1011.59 1011.98 1012.33 1012.64 1012.88 1013.06 1013.18 1013.24 1013.26 1013.25 1013.21 1013.16 1013.09 1013.01 1012.89 1012.74 1012.55 1012.31 1012.02 1011.70 1011.34 1010.97 1010.59
Thickness
5762 5761 5759 5758 5757 5755 5754 5754 5753 5752 5751 5751 5750 5749 5750 5749 5749 5748 5748 5749 5750 5750 5751 5752 5753 5754 5755 5755 5755 5755 5753 5752 5750 5749 5747 5745 5744 5742 5739 5737 5735 5732 5730
5758 5757 5756 5755 5754 5752 5751 5750 5749 5748 5747 5746 5746 5746 5746 5746 5746 5746 5746 5747 5747 5748 5748 5750 5751 5753 5754 5754 5755 5755 5754 5753 5752 5750 5748 5747 5745 5743 5741 5739 5736 5734 5732
5753 5752 5751 5751 5751 5749 5747 5745 5743 5741 5740 5740 5740 5741 5742 5742 5742 5742 5743 5744 5744 5745 5745 5747 5749 5751 5752 5753 5754 5754 5754 5753 5752 5751 5749 5748 5746 5744 5742 5740 5738 5735 5733
5749 5748 5747 5747 5746 5744 5742 5739 5737 5734 5734 5733 5734 5735 5737 5737 5738 5738 5739 5740 5741 5742 5743 5744 5746 5748 5750 5751 5752 5753 5753 5752 5752 5752 5750 5748 5746 5744 5742 5740 5738 5736 5734
5745 5745 5744 5744 5742 5740 5738 5735 5733 5730 5728 5728 5729 5731 5732 5732 5733 5734 5736 5737 5737 5738 5739 5741 5743 5745 5746 5748 5750 5751 5751 5752 5752 5751 5750 5749 5747 5745 5743 5741 5739 5737 5734
5741 5740 5740 5740 5738 5736 5734 5731 5728 5726 5725 5723 5723 5726 5728 5728 5729 5730 5731 5732 5733 5734 5735 5736 5738 5740 5742 5744 5746 5747 5748 5750 5750 5750 5749 5748 5747 5744 5742 5740 5738 5736 5734
5737 5736 5735 5735 5733 5731 5730 5728 5724 5721 5719 5717 5714 5716 5720 5723 5724 5726 5726 5726 5728 5729 5730 5731 5732 5733 5736 5738 5740 5742 5744 5746 5748 5748 5748 5747 5746 5744 5741 5739 5737 5735 5733
5733 5731 5730 5730 5729 5727 5724 5723 5720 5717 5715 5712 5709 5706 5706 5711 5717 5721 5720 5720 5721 5723 5724 5726 5726 5727 5729 5731 5733 5735 5738 5740 5743 5744 5744 5744 5744 5742 5740 5738 5735 5733 5731
5726 5725 5725 5724 5723 5721 5720 5719 5717 5713 5709 5709 5707 5702 5697 5698 5703 5709 5712 5713 5714 5715 5717 5718 5719 5720 5722 5724 5726 5727 5730 5733 5735 5737 5739 5740 5740 5740 5738 5736 5733 5731 5729
5718 5718 5718 5718 5717 5716 5715 5715 5713 5711 5707 5704 5703 5702 5700 5699 5696 5697 5702 5704 5706 5707 5709 5711 5712 5712 5714 5716 5718 5720 5722 5725 5728 5730 5732 5734 5736 5736 5735 5733 5731 5728 5726
5710 5710 5711 5711 5710 5710 5710 5710 5708 5707 5705 5702 5699 5697 5695 5693 5694 5691 5691 5694 5697 5699 5700 5702 5703 5704 5706 5708 5710 5712 5713 5716 5719 5722 5724 5727 5729 5730 5730 5729 5727 5725 5723
5701 5702 5703 5703 5703 5703 5703 5703 5703 5702 5700 5699 5697 5695 5693 5690 5690 5688 5686 5686 5687 5689 5691 5692 5694 5695 5697 5699 5701 5703 5705 5707 5710 5712 5715 5718 5720 5722 5723 5722 5722 5720 5719
5692 5693 5694 5694 5695 5696 5696 5696 5696 5696 5695 5694 5693 5692 5690 5690 5689 5686 5683 5680 5678 5679 5680 5681 5684 5686 5688 5689 5691 5694 5696 5697 5700 5702 5705 5708 5710 5711 5713 5713 5713 5713 5712
5686 5686 5686 5687 5687 5688 5689 5689 5689 5690 5689 5688 5688 5687 5686 5685 5684 5681 5679 5675 5670 5668 5669 5670 5673 5675 5677 5680 5682 5684 5686 5687 5689 5692 5694 5696 5698 5700 5702 5703 5703 5703 5704
5679 5679 5679 5679 5680 5680 5681 5681 5681 5682 5682 5682 5682 5681 5680 5680 5678 5677 5675 5672 5667 5661 5659 5660 5662 5665 5668 5670 5672 5674 5676 5678 5680 5682 5684 5686 5687 5689 5690 5691 5692 5693 5694
5671 5671 5671 5671 5671 5672 5673 5673 5674 5675 5675 5675 5675 5674 5673 5672 5670 5669 5668 5666 5663 5660 5653 5651 5653 5655 5658 5661 5662 5664 5665 5667 5669 5671 5673 5675 5677 5678 5679 5681 5682 5683 5683
5665 5664 5663 5663 5663 5664 5664 5665 5666 5667 5667 5667 5667 5666 5664 5664 5662 5661 5660 5658 5656 5655 5648 5643 5644 5646 5648 5650 5652 5654 5655 5657 5659 5661 5663 5665 5667 5668 5669 5671 5672 5672 5673
5658 5657 5656 5655 5655 5655 5656 5656 5657 5658 5658 5658 5658 5657 5655 5655 5654 5652 5651 5650 5649 5648 5644 5637 5635 5637 5638 5640 5643 5644 5646 5648 5650 5652 5654 5655 5657 5658 5659 5660 5661 5662 5662
5651 5650 5648 5647 5646 5646 5647 5647 5648 5649 5649 5649 5649 5648 5647 5646 5644 5643 5642 5640 5639 5637 5636 5632 5628 5628 5629 5631 5633 5635 5637 5639 5641 5643 5645 5646 5648 5649 5650 5650 5651 5651 5652
5644 5642 5641 5640 5639 5638 5638 5638 5638 5638 5638 5638 5638 5637 5637 5637 5635 5634 5632 5630 5628 5626 5624 5624 5622 5621 5622 5622 5625 5626 5628 5630 5631 5634 5635 5637 5639 5640 5640 5641 5641 5641 5641
5637 5635 5634 5633 5632 5631 5630 5628 5628 5628 5627 5626 5626 5627 5627 5627 5626 5625 5624 5621 5620 5618 5616 5616 5614 5614 5614 5615 5616 5617 5619 5621 5622 5623 5626 5628 5629 5630 5630 5630 5630 5630 5630
5630 5628 5627 5626 5625 5624 5622 5620 5619 5618 5616 5616 5616 5616 5616 5615 5615 5615 5614 5613 5613 5611 5609 5608 5607 5607 5606 5607 5608 5610 5612 5615 5615 5615 5616 5618 5619 5620 5620 5619 5618 5619 5619
5622 5621 5619 5618 5617 5615 5614 5612 5611 5609 5607 5607 5606 5606 5607 5605 5605 5604 5603 5602 5602 5602 5603 5603 5602 5601 5601 5602 5603 5605 5605 5606 5605 5604 5607 5610 5610 5610 5610 5608 5608 5607 5607
5615 5614 5613 5612 5610 5609 5607 5605 5603 5601 5599 5598 5598 5598 5597 5596 5596 5596 5595 5593 5592 5593 5594 5595 5596 5595 5596 5597 5598 5599 5598 5598 5598 5597 5598 5600 5600 5600 5599 5598 5597 5596 5596
5608 5608 5607 5605 5604 5602 5601 5599 5597 5594 5592 5590 5590 5590 5590 5589 5588 5589 5588 5586 5585 5585 5586 5587 5589 5589 5591 5592 5593 5594 5594 5595 5594 5592 5589 5590 5590 5589 5589 5589 5587 5585 5584
5601 5601 5600 5599 5599 5597 5595 5593 5592 5589 5585 5583 5582 5583 5584 5584 5583 5583 5584 5582 5581 5580 5581 5582 5582 5583 5584 5585 5586 5588 5588 5588 5587 5585 5582 5581 5581 5579 5580 5579 5576 5574 5573